SAUDISAT 5B

Last updated on Sat Oct 18 2025 00:02:33 GMT+0000 (Coordinated Universal Time)

1 43833U 18102C 25290.76434747 .00008666 00000+0 34933-3 0 9993 2 43833 97.3529 354.6897 0009507 274.4770 85.5382 15.25029236378804
UTC large
Height (km)
Speed (km/s)
/
Latitude / Longitude
Inclination (degrees)
Orbital Period (minutes)
Azimuth
Elevation
Range (km)
Doppler Factor

Next 0 passes for location: London (51.5072 / 0.1276)

Sorry there are no passes over London.